Powrót do katalogu

NIMBUS 2 DEB

AktywnySSO
NORAD 59975·DEBRIS·🇺🇸 United States

Wystrzelony May 15, 1966 z Vandenberg Space Force Base

Loading…

Następne Przeloty (najbliższe 24 godziny)

TLE

ŚwieżeSource: Space-Track

Epoka: Sep 13, 2026, 17:32 UTC

1 59975U 66040CE  26256.73080014  .00001734  00000-0  29968-2 0  9996
2 59975 100.1510  57.5365 0040404 303.2050  56.5209 13.45330658342241

Śledź NIMBUS 2 DEB w czasie rzeczywistym z AllMySat

Download on the App Store